Regional Weather Roundup
Issued by NWS Charleston, WV

Home | Current Version | Previous Version | Graphics & Text | Print | Product List | Glossary On
Versions: 1 2 3 4 5 6 7 8 9 10 11 12 13 14 15 16 17 18 19 20 21 22 23 24 25 26 27 28 29 30 31 32 33 34 35 36 37 38 39 40 41 42 43 44 45 46 47 48 49 50
000
ASUS41 KRLX 282210
RWRRLX
West Virginia Regional Weather Roundup
National Weather Service Charleston WV
600 PM EDT MON JUL 28 2014

Note: "fair" indicates few or no clouds below 12,000 feet with no
significant weather and/or obstructions to visibility.

WVZ003-282300-
Northern Panhandle of West Virginia

CITY           SKY/WX    TMP DP  RH WIND       PRES   REMARKS
WHEELING       CLOUDY    67  54  63 NW12G24   29.90R
$$

WVZ009-282300-
Northwest West Virginia

CITY           SKY/WX    TMP DP  RH WIND       PRES   REMARKS
PARKERSBURG    PTSUNNY  N/A N/A N/A N8        29.91S
$$

WVZ006-282300-
Western West Virginia

CITY           SKY/WX    TMP DP  RH WIND       PRES   REMARKS
HUNTINGTON     CLOUDY    69  60  73 W3        29.94R
$$

WVZ015-282300-
West Central West Virginia

CITY           SKY/WX    TMP DP  RH WIND       PRES   REMARKS
CHARLESTON     PTSUNNY   66  64  93 W7        29.94R
$$

WVZ031-282300-
North Central West Virginia

CITY           SKY/WX    TMP DP  RH WIND       PRES   REMARKS
CLARKSBURG     CLOUDY    67  57  70 NW10G22   29.89R
MORGANTOWN     CLOUDY    69  55  60 NW8G17    29.90R
$$

WVZ035-042-045-282300-
South Central West Virginia

CITY           SKY/WX    TMP DP  RH WIND       PRES   REMARKS
BECKLEY        CLOUDY    65  54  67 NW13      29.97R
BLUEFIELD      CLOUDY    68  55  63 NW10G22   29.99R
LEWISBURG      PTSUNNY   70  53  55 NW9G17    29.94S
$$

WVZ047-282300-
Northern Mountains of West Virginia

CITY           SKY/WX    TMP DP  RH WIND       PRES   REMARKS
ELKINS         CLOUDY    65  57  75 W9        29.92R
$$

WVZ052-282300-
Eastern Panhandle of West Virginia

CITY           SKY/WX    TMP DP  RH WIND       PRES   REMARKS
MARTINSBURG    CLOUDY    76  57  51 W20G32    29.75R
PETERSBURG     CLOUDY    71  55  56 SW6       29.84R
$$



USA.gov is the U.S. government's official web portal to all federal, state and local government web resources and services.